Regional Weather Roundup
Issued by NWS

Home | Current Version | Previous Version | Graphics & Text | Print | Product List | Glossary On
Versions: 1 2 3 4 5 6 7 8 9 10 11 12 13 14 15 16 17 18 19 20 21 22 23 24 25 26 27 28 29 30 31 32 33 34 35 36 37 38 39 40 41 42 43 44 45 46 47 48 49 50
000
ASUS43 KFSD 261210
RWRSD

WEATHER ROUNDUP FOR SOUTH DAKOTA
NATIONAL WEATHER SERVICE SIOUX FALLS SD
600 AM CST THU FEB 26 2015

NOTE: "FAIR" INDICATES FEW OR NO CLOUDS BELOW 12,000 FEET WITH NO
SIGNIFICANT WEATHER AND/OR OBSTRUCTIONS TO VISIBILITY.


SDZ001>005-009-010-012>017-261300-
NORTHWEST AND NORTH CENTRAL SOUTH DAKOTA

CITY           SKY/WX    TMP DP  RH WIND       PRES   REMARKS
BUFFALO          N/A     -6 -11  79 NW8       30.32S WCI -21
FAITH            N/A     -6 -12  75 NW10      30.43R WCI -24
MOBRIDGE       CLEAR     -8 -14  74 NW13      30.46S WCI -28
$$

SDZ012>016-024>037-041>051-057-063-072>074-261300-
SOUTHWEST AND SOUTH CENTRAL SOUTH DAKOTA

CITY           SKY/WX    TMP DP  RH WIND       PRES   REMARKS
RAPID CTY ARPT LGT SNOW   2  -2  83 N10       30.38S FOG     WCI -14
PIERRE         CLEAR     -4 -10  75 N9        30.49R WCI -20
CUSTER         LGT SNOW   0  -7  72 NE3       30.12R
ELLSWORTH AFB  CLOUDY     1  -3  83 N6        30.37S WCI -10
PHILIP         CLOUDY    -2  -8  76 N7        30.48R WCI -15
PINE RIDGE     CLOUDY     6   0  76 N5        30.35R WCI  -3
WINNER         CLOUDY     0  -9  65 N10       30.46S WCI -16
$$

SDZ004>011-016>023-039-040-261300-
NORTHEAST SOUTH DAKOTA

CITY           SKY/WX    TMP DP  RH WIND       PRES   REMARKS
ABERDEEN       CLEAR     -9 -16  71 NW12      30.51R WCI -28
WATERTOWN      CLEAR    -12 -16  82 NW6       30.40R WCI -26
SISSETON         N/A     -9 -14  78 N12       30.48R WCI -28
$$

SDZ017-020-022-023-036>040-048>070-261300-
SOUTHEAST SOUTH DAKOTA

CITY           SKY/WX    TMP DP  RH WIND       PRES   REMARKS
SIOUX FALLS    CLEAR     -9 -14  78 NW7       30.43R WCI -24
HURON          CLEAR    -15 -20  78 NW10      30.51R WCI -35
CHAMBERLAIN    CLEAR     -3  -9  77 NW10      30.49R WCI -20
MITCHELL       CLEAR     -6 -11  79 NW10      30.52R WCI -24
YANKTON        CLEAR     -2  -9  71 NW12      30.49R WCI -20
$$

ABBREVIATIONS USED IN REMARKS
   TC - TEMPERATURE IN CELSIUS
  WCI - WIND CHILL INDEX
   HX - HEAT INDEX
  VSB - VISIBILITY



USA.gov is the U.S. government's official web portal to all federal, state and local government web resources and services.